User: anonymous   Login
Location: Caltech
(34.1382°N, 118.1253°W)
Time: 09:04:06
(UTC-08:00)
Language:

Cosmos 676 Rocket - Orbit

View from above orbital plane
View from above orbital plane
View from above satellite
View from above satellite

Ground track
Ground track

The orbit data is extracted from the following two-line orbital elements,

1  7434U 74071B   17344.88756802 +.00000025 +00000-0 +17453-4 0  9991
2  7434 074.0475 249.5173 0019670 118.3233 241.9908 14.36661872261817
Epoch (UTC): 10 December 2017 21:18:05
Eccentricity: 0.0019670
inclination: 74.0475°
perigee height: 755 km
apogee height: 783 km
right ascension of ascending node: 249.5173°
argument of perigee: 118.3233°
revolutions per day: 14.36661872
mean anomaly at epoch: 241.9908°
orbit number at epoch: 26181

The dashed part of the orbit path shows where the satellite is in the earth's shadow,  

DLR